Location: Arborea
(39.7744°N, 8.5819°E)
Time: 06:36:12
(UTC+00:00)

ATLAS 5 CENTAUR R/B - Pass Details

Date: 24 October 2021
Orbit: 497 x 1159 km, 63.4° (Epoch: 25 November)

Event Time Altitude Azimuth Distance (km) Brightness Sun altitude
Rises 17:48:58 0° 270° (W) 2,632 6.7 -15.1°
Reaches altitude 10° 17:52:27 10° 304° (NW) 1,828 4.8 -15.8°
Maximum altitude 17:53:57 12° 326° (NNW) 1,763 4.3 -16.1°
Drops below altitude 10° 17:55:31 10° 348° (NNW) 1,925 4.2 -16.4°
Enters shadow 17:59:26 - 21° (NNE) 2,976 4.8 -17.1°
